DateTimeUTC,F1_A11,F1_S11,BsB_S11,BsG_S11,BsR_S11,BbsB_S11,BbsG_S11,BbsR_S11,BaB_A11,BaG_A11,BaR_A11,Tu_S11,T_S11,Uu_S11,U_S11,P_S11,T1_A11
2021-07-19T08:00:00Z,00000200,20000000,,,,,,,-000.38,-000.16,-000.19,18.8,25.2,12.0,08.1,0675.0,31.1
2021-07-19T08:01:00Z,00000200,20000000,,,,,,,-000.02,-000.22,0000.16,18.7,25.2,12.0,08.1,0675.0,31.1
2021-07-19T08:02:00Z,00000200,20000000,,,,,,,-000.15,0000.06,-000.53,18.7,25.2,12.0,08.1,0675.0,31.1
2021-07-19T08:03:00Z,00000200,60000000,,,,,,,0001.15,0000.69,0000.66,18.7,25.2,12.0,08.1,0675.0,31.0
2021-07-19T08:04:00Z,00000200,40000000,0003.77,0002.65,0001.34,0000.74,0000.38,0000.52,0000.48,0000.65,0000.75,18.8,25.1,12.0,08.2,0676.0,31.0
2021-07-19T08:05:00Z,00000200,00000000,0004.01,0002.86,0001.36,0000.23,0000.49,0000.11,0001.01,0000.87,0000.63,18.9,25.0,12.0,08.2,0676.0,31.1
2021-07-19T08:06:00Z,00000200,00000000,0003.68,0002.56,0001.57,0000.38,0000.14,0000.28,0001.09,0000.96,0000.74,18.9,25.0,12.1,08.3,0676.0,31.0
2021-07-19T08:07:00Z,00000200,00000000,0003.29,0002.52,0001.55,0000.25,0000.25,0000.61,0000.12,0000.55,0000.28,18.9,25.0,12.1,08.3,0676.0,31.0
2021-07-19T08:08:00Z,00000200,00000000,0003.60,0002.40,0001.49,0000.15,0000.26,0000.41,0001.14,0000.68,0000.62,18.9,25.0,12.2,08.4,0676.0,31.1
2021-07-19T08:09:00Z,00000200,00000000,0004.09,0002.41,0001.63,0000.02,0000.22,0000.73,0000.89,0000.62,0000.87,18.9,25.0,12.2,08.4,0676.1,31.0
2021-07-19T08:10:00Z,00000200,00000000,0003.58,0002.40,0001.61,0000.51,0000.35,0000.35,0000.36,0000.62,0000.40,18.9,25.0,12.3,08.5,0676.1,31.0
2021-07-19T08:11:00Z,00000200,00000000,0003.66,0002.50,0001.70,0000.20,0000.16,0000.38,0001.20,0000.88,0000.30,18.9,25.0,12.4,08.5,0676.1,31.1
2021-07-19T08:12:00Z,00000200,00000000,0003.03,0002.51,0001.55,0000.08,0000.44,0000.29,0000.70,0000.86,0000.84,18.9,25.0,12.5,08.6,0676.1,31.1
2021-07-19T08:13:00Z,00000200,00000000,0003.69,0002.55,0001.60,0000.39,0000.34,-000.01,0000.99,0000.70,0000.54,18.9,25.0,12.5,08.6,0676.1,31.1
2021-07-19T08:14:00Z,00000200,00000000,0003.82,0002.69,0001.68,-000.20,0000.05,0000.46,0000.69,0000.70,0000.27,18.9,25.0,12.5,08.6,0676.0,31.1
2021-07-19T08:15:00Z,00000200,00000000,0003.08,0002.40,0001.48,0000.42,0000.28,0000.19,0000.90,0000.65,0000.85,18.9,25.0,12.6,08.7,0676.1,31.1
2021-07-19T08:16:00Z,00000200,00000000,0003.87,0002.39,0001.55,0000.69,0000.65,0000.07,0000.90,0001.04,0000.89,18.9,25.0,12.7,08.7,0676.1,31.1
2021-07-19T08:17:00Z,00000200,00000000,0003.35,0002.35,0001.55,-000.03,0000.35,0000.31,0000.62,0000.54,0000.56,18.9,25.0,12.8,08.8,0676.1,31.1
2021-07-19T08:18:00Z,00000200,00000000,0002.97,0002.53,0001.50,0000.17,0000.47,-000.00,0000.76,0001.04,0000.47,18.9,25.0,12.7,08.7,0676.0,31.1
2021-07-19T08:19:00Z,00000200,00000000,0003.45,0002.46,0001.34,0000.60,0000.18,0000.19,0000.57,0000.36,0000.51,18.9,25.0,12.8,08.8,0676.1,31.1
2021-07-19T08:20:00Z,00000200,00000000,0003.22,0002.32,0001.48,0000.29,0000.15,0000.55,0000.68,0000.58,0000.26,18.9,25.0,12.8,08.8,0676.0,31.1
2021-07-19T08:21:00Z,00000200,00000000,0003.19,0002.21,0001.59,0000.78,0000.47,0000.84,0001.25,0000.93,0000.68,18.9,25.0,12.8,08.8,0676.0,31.1
2021-07-19T08:22:00Z,00000200,00000000,0002.67,0002.67,0001.44,0000.11,0000.38,0000.26,0000.79,0000.87,0000.73,18.9,25.0,12.8,08.9,0676.1,31.1
2021-07-19T08:23:00Z,00000200,00000000,0003.43,0002.65,0000.96,0000.24,0000.71,0000.06,0000.39,0000.30,0000.46,18.9,25.0,12.9,08.9,0676.1,31.1
2021-07-19T08:24:00Z,00000200,00000000,0003.33,0002.24,0001.35,-000.22,0000.34,0000.12,0000.60,0001.08,0000.61,19.0,25.0,12.9,08.9,0676.1,31.1
2021-07-19T08:25:00Z,00000200,00000000,0003.24,0002.70,0001.82,0000.36,0000.26,-000.01,0000.86,0000.42,0000.43,19.0,25.0,12.9,08.9,0676.1,31.1
2021-07-19T08:26:00Z,00000200,00000000,0003.92,0002.02,0001.47,0000.47,0000.60,0000.45,0000.89,0000.92,0000.61,19.0,25.0,12.9,08.9,0676.1,31.1
2021-07-19T08:27:00Z,00000200,00000000,0003.78,0002.61,0001.83,0000.07,0000.42,0000.25,0000.74,0000.23,0000.41,19.0,25.0,12.9,08.9,0676.1,31.1
2021-07-19T08:28:00Z,00000200,00000000,0003.64,0002.41,0001.76,0000.62,0000.46,0000.41,0000.67,0000.73,0000.41,19.0,25.0,13.0,08.9,0676.1,31.1
2021-07-19T08:29:00Z,00000200,00000000,0004.44,0002.20,0001.48,0000.58,0000.46,0000.22,0000.72,0000.56,0000.85,19.0,25.0,12.9,08.9,0676.1,31.1
2021-07-19T08:30:00Z,00000200,00000000,0003.35,0002.27,0001.26,-000.02,0000.45,0000.44,0000.74,0001.03,0000.36,19.0,25.0,13.0,08.9,0676.1,31.1
2021-07-19T08:31:00Z,00000200,00000000,0003.82,0002.30,0001.75,0000.57,0000.33,0000.43,0000.89,0000.53,0000.30,19.0,25.0,12.9,08.9,0676.1,31.1
2021-07-19T08:32:00Z,00000200,00000000,0004.43,0002.30,0001.57,0000.37,0000.12,0000.48,0000.29,0000.51,0000.50,19.0,25.0,13.0,09.0,0676.2,31.1
2021-07-19T08:33:00Z,00000200,00000000,0003.62,0002.29,0001.86,0000.31,0000.30,0000.49,0000.96,0000.61,0000.59,19.0,25.0,12.8,08.8,0676.2,31.1
2021-07-19T08:34:00Z,00000200,00000000,0003.91,0002.41,0001.49,0000.55,0000.25,0000.36,0000.71,0001.14,0000.65,19.0,25.0,12.9,08.9,0676.2,31.1
2021-07-19T08:35:00Z,00000200,00000000,0002.98,0002.29,0001.32,0000.48,0000.46,0000.69,0000.67,0000.42,0000.34,19.0,25.1,12.9,08.9,0676.2,31.1
2021-07-19T08:36:00Z,00000200,00000000,0002.97,0002.25,0001.35,-000.00,0000.07,0000.27,0000.45,0000.29,0000.34,19.0,25.1,12.8,08.9,0676.2,31.1
2021-07-19T08:37:00Z,00000200,00000000,0002.65,0002.07,0001.39,0000.28,0000.32,0000.26,0000.57,0000.56,0000.50,19.0,25.0,12.8,08.9,0676.2,31.1
2021-07-19T08:38:00Z,00000200,00000000,0003.25,0002.10,0001.61,0000.91,0000.21,0000.22,0000.93,0000.84,0000.47,19.0,25.1,12.8,08.9,0676.2,31.0
2021-07-19T08:39:00Z,00000200,00000000,0003.46,0002.19,0001.19,0000.42,0000.31,0000.48,0001.02,0000.59,0000.90,19.0,25.1,12.8,08.9,0676.2,31.1
2021-07-19T08:40:00Z,00000200,00000000,0003.17,0002.34,0001.78,-000.29,0000.29,0000.13,0000.32,0000.58,0000.19,19.1,25.1,13.0,09.0,0676.2,31.1
2021-07-19T08:41:00Z,00000200,00000000,0003.26,0001.97,0001.17,0000.83,-000.03,0000.18,0000.67,0000.62,0000.67,19.1,25.1,12.9,08.9,0676.1,31.1
2021-07-19T08:42:00Z,00000200,00000000,0003.47,0002.01,0001.34,0000.20,0000.25,0000.22,0000.76,0000.39,0000.26,19.0,25.1,12.9,09.0,0676.2,31.1
2021-07-19T08:43:00Z,00000200,00000000,0003.24,0002.28,0001.57,0000.26,0000.22,0000.07,0000.56,0001.07,0000.46,19.0,25.1,13.0,09.0,0676.2,31.1
2021-07-19T08:44:00Z,00000200,00000000,0003.39,0002.33,0001.74,-000.23,0000.55,0000.26,0000.65,0000.41,0000.31,19.1,25.1,13.0,09.0,0676.1,31.1
2021-07-19T08:45:00Z,00000200,00000000,0003.08,0001.94,0001.10,0000.23,0000.25,-000.01,0000.78,0000.61,0000.57,19.0,25.1,13.1,09.1,0676.1,31.1
2021-07-19T08:46:00Z,00000200,00000000,0003.02,0002.10,0001.34,-000.13,0000.42,0000.32,0000.50,0000.68,0000.78,19.0,25.1,13.0,09.0,0676.1,31.1
2021-07-19T08:47:00Z,00000200,00000000,0003.05,0001.98,0001.38,0000.36,0000.57,0000.18,0000.81,0000.22,0000.15,19.0,25.1,13.1,09.1,0676.1,31.1
2021-07-19T08:48:00Z,00000200,00000000,0003.14,0002.33,0001.12,0000.58,0000.16,0000.49,0000.60,0001.19,0000.81,19.0,25.0,13.2,09.1,0676.1,31.1
2021-07-19T08:49:00Z,00000200,00000000,0003.19,0001.70,0001.03,0000.27,0000.30,0000.50,0000.99,0000.44,0000.33,19.0,25.1,13.2,09.2,0676.1,31.1
2021-07-19T08:50:00Z,00000200,00000000,0003.34,0002.00,0001.32,0000.25,0000.32,-000.19,0000.59,0000.64,0000.74,19.0,25.1,13.3,09.2,0676.1,31.1
2021-07-19T08:51:00Z,00000200,00000000,0003.10,0002.07,0001.15,0000.16,0000.20,0000.01,0000.44,0000.48,0000.24,19.0,25.1,13.4,09.3,0676.1,31.1
2021-07-19T08:52:00Z,00000200,00000000,0002.68,0001.78,0001.05,0000.56,0000.02,0000.25,0000.64,0000.55,0000.42,19.0,25.1,13.5,09.3,0676.1,31.0
2021-07-19T08:53:00Z,00000200,00000000,0002.65,0001.71,0001.02,0000.29,0000.30,0000.24,0000.72,0000.55,0000.44,19.0,25.1,13.5,09.3,0676.0,31.1
2021-07-19T08:54:00Z,00000200,00000000,0002.36,0001.52,0000.87,0000.48,0000.38,0000.12,0000.44,0000.65,0000.21,19.0,25.1,13.5,09.3,0676.1,31.0
2021-07-19T08:55:00Z,00000200,00000000,0002.54,0001.55,0001.08,0000.32,0000.26,0000.17,0000.55,0000.32,0000.55,19.0,25.0,13.6,09.4,0676.1,31.0
2021-07-19T08:56:00Z,00000200,00000000,0003.00,0001.84,0001.53,0000.74,0000.32,0000.27,0000.44,0000.58,0000.23,19.0,25.0,13.6,09.4,0676.1,31.0
2021-07-19T08:57:00Z,00000200,40000000,,,,,,,-000.16,-000.30,-000.17,19.0,25.0,13.1,09.0,0676.2,31.0
2021-07-19T08:58:00Z,00000200,60000000,,,,,,,0000.10,0000.13,-000.15,18.8,25.2,13.3,09.0,0675.1,31.0
2021-07-19T08:59:00Z,00000200,20000000,,,,,,,-000.28,-000.09,0000.16,18.8,25.3,13.4,09.0,0675.0,31.1
